GAOFEN 11 04

导读 | 星芒AI

高分十一号04星是中国高分辨率对地观测系统的重要组成部分,于2023年发射,主要用于国土普查、城市规划、环境保护等领域。该卫星具备高分辨率、多光谱成像能力,能够提供高质量的遥感数据,提升中国在遥感应用方面的技术水平。

基本信息
目录编号:
54818
目录名称:
GAOFEN 11 04
国际标识:
2022-176A
轨道中心:
EARTH
卫星名称:
GAOFEN 11 04
卫星全名:
--
卫星状态:
在轨 (已飞行1037 天)
发射日期:
2022-12-27 UTC
国别 :
中国 (CN)
星等 :
--
轨道信息
数据来源 国际轨道数据 AOE轨道数据
星历时间 2025-10-29T00:01:28+0800
14小时前
查看轨道信息
2025-10-22T15:00:00+0800
6天前
查看轨道信息
半长轴 6874.129km 6872.397km
偏心率 0.000414 0.0002148
轨道倾角 97.395° 97.395°
近地点辐角 11.878° 72.441°
升交点赤经 72.849° 66.567°
平近点角 348.255° 261.957°
近地点 493.148km 492.785km
远地点 498.84km 495.739km
周期 94.534分钟 94.498分钟
每日圈数 15.232678 15.238437
详细信息
使用方式:
暂无
2D轨道图
3D轨道图
轨道高度分析图
轨道倾角分析图
轨道综合分析图
查看轨道综合分析图